Location: Newark
(48.1500°N, 2.9667°W)
Time: 00:58:51
(UTC+00:00)

A-11 Canister half - Pass Details

Date: 25 January 2020
Orbit: 1524 x 1684 km, 47.3° (Epoch: 20 February)

Event Time Altitude Azimuth Distance (km) Brightness Sun altitude
Rises 20:19:43 0° 265° (W) 4,694 12.6 -33.1°
Reaches altitude 10° 20:22:44 10° 265° (W) 3,725 11.8 -33.6°
Maximum altitude 20:32:12 86° 178° (S) 1,587 8.8 -35.2°
Enters shadow 20:32:38 83° 119° (ESE) 1,596 8.8 -35.3°
Drops below altitude 10° 20:42:01 10° 92° (E) 3,847 - -36.8°
Sets 20:45:10 0° 92° (E) 4,854 - -37.3°
